Location: Pacheco
(37.9835°N, 122.0752°W)
Time: 23:35:04
(UTC+00:00)

Iridium 51 - Pass Details

Date: 13 April 2024
Orbit: 435 x 635 km, 86.4° (Epoch: 21 May)

Event Time Altitude Azimuth Distance (km) Brightness Sun altitude
Exits shadow 12:18:04 - 182° (S) 1,645 6.5 -15.1°
Reaches altitude 10° 12:18:13 10° 182° (S) 1,584 6.4 -15.1°
Maximum altitude 12:21:38 88° 269° (W) 448 3.8 -14.5°
Drops below altitude 10° 12:24:58 10° 2° (N) 1,552 7.0 -13.9°
Sets 12:27:00 0° 2° (N) 2,422 8.0 -13.5°
